Simultaneous Nadir Overpasses (SNOs) Predictions

Prediction of SNOs between GOES-15 and METOP-C Satellite Orbit:

Table of predicted SNOs for the next 14.0 days since TLE Epoch: 4/1/2023
Index Date Time (GOES-15) GOES-15 Lat,Lon METOP-C Lat,Lon Distance(km) Time Diff (sec)
1 04/01/2023 06:10:17 0.13,-128.16 -0.31,-130.23 235.00 80
2 04/02/2023 05:52:18 0.13,-128.18 0.76,-125.23 335.92 80
3 04/03/2023 18:08:32 -0.14,-128.24 0.23,-129.80 178.69 80
4 04/04/2023 17:50:34 -0.13,-128.26 -0.90,-124.82 391.98 80
5 04/06/2023 06:06:54 0.14,-128.25 -0.11,-129.42 133.25 80
6 04/07/2023 05:48:54 0.14,-128.26 0.97,-124.42 437.20 80
7 04/08/2023 18:05:09 -0.15,-128.31 0.00,-129.00 78.27 80
8 04/09/2023 17:47:09 -0.15,-128.32 -1.09,-124.00 491.44 80
9 04/11/2023 06:03:29 0.16,-128.29 0.09,-128.60 35.57 80
10 04/13/2023 18:04:24 -0.18,-128.33 -0.24,-128.19 17.18 80
